THORAD AGENA D DEB, 4158

Orbit data source: Space-Track

THORAD AGENA D DEB, 4158 is space debris in LEO originally from a launch on Tue, 30 Sep 1969 UTC launched from the Air Force Western Test Range (AFWTR). Debris objects in space refer to the collection of defunct objects orbiting the Earth. Examples of debris include non-operational satellites, rocket bodies, and fragments generated from explosions, collisions, or faulty payload assembly.

Loading next visibility...
Identifier
4158, 1969-082AA
Orbit
LEO
Country
Flag of USUS
Related business
Manufacturer
Unknown
Mission
Spacecraft
Bus & Motor
Unknown
Mass
Unknown
Launch date (UTC)
1969-09-30 (57 years ago)
Launch vehicle
Unknown
Launch site
Air Force Western Test Range (AFWTR)
Object type
Payload
Rocket body
Debris
Shape & HBR
Unknown shape, 0.3 m
Radar Cross Section
Medium (>0.1 m² and <1 m²)

Expand to show TLE details & history
Last TLE update: 9 hours ago

TLE from 9 hours ago
0 THORAD AGENA D DEB
1 04158U 69082AA  26093.95514601  .00000370  00000-0  22575-3 0  9998
2 04158  70.0445 302.1557 0044694 279.0703  80.5356 14.12993989904205
Epoch: 2026-04-03T22:55Z
TLE epoch observation values (Epoch: 2026-04-03T22:55:24.615Z)
Latitude
0.00001°
Longitude
126.02129°
Altitude
846.307 km
Speed
7.433 km/s
True Right ascension
20h 08m 37s
True Declination
0° 00' 00"
Sunlit
Object was in daylight at epoch
Visualization orbit readout
Latitude
Unknown
Longitude
Unknown
Altitude
Unknown
Speed
Unknown
Apparent Right ascension
Unknown
Apparent Declination
Unknown
Sunlit
N/A
Visualization observer readout
Local Sidereal Time
13:31:09
Azimuth
Unknown
Elevation
Unknown
Doppler factor
Unknown
Orbital elements
Apogee altitude
879.46 km
Perigee altitude
814.874 km
Semi-major axis
7,225.304 km
Eccentricity
0.00447
Inclination
70.0445°
RAAN
302.1557°
Arg. of periapsis
279.0703°
True anomaly
81.04124°
Mean anomaly
80.5356°
Eccentric anomaly
80.78838°
Mean motion
3.53394 °/min
Orbital period
101.87 mins
BSTAR
0.00022575
Loading maneuver chart data...
Computing Atmospheric mass density...

Documentation

Showing up to 5 results
|